Showing default

SAUDISAT 5B, 43833

Orbit data source: Space-Track

SAUDISAT 5B, 43833 is a payload satellite owned by KACST (SA) in SSO that was launched on Fri, 07 Dec 2018 UTC via a CHANG ZHENG 2D launch vehicle from the Jiuquan Satellite Launch Center, China (JSC). Payload-class satellites include a variety of spacecraft equipped with specific instruments for various scientific and technological missions. These include communications satellites like Starlink; space stations such as the ISS; scientific satellites like the Hubble; Earth observation satellites from companies like Planet Labs, Umbra, and HawkEye 360; GPS; miniature CubeSats for education and research; and military/defense satellites.

Loading next visibility...
Identifier
43833, 2018-102C
Orbit
SSO
Country
Flag of UnknownUnknown / SAUD
Related business
Manufacturer
KACST
Mission
Operational Civil Technology
Bus & Motor
SAUDISAT, Unknown motor
Mass
425 kg wet, 425 kg dry
Launch date (UTC)
2018-12-07 (7 years ago)
Launch vehicle
CHANG ZHENG 2D
Launch site
Jiuquan Satellite Launch Center, China (JSC)
Object type
Payload
Rocket body
Debris
Shape & HBR
Box, 1.0 m
Radar Cross Section
2.500 m², Large (>1 m²)

Expand to show TLE details & history
Last TLE update: 16 hours ago

TLE from 16 hours ago
0 SAUDISAT 5B
1 43833U 18102C   25259.59189553  .00006005  00000-0  24677-3 0  9991
2 43833  97.3572 324.0812 0011859  32.1332 328.0627 15.24489384374059
Epoch: 2025-09-16T14:12Z
TLE epoch observation values (Epoch: 2025-09-16T14:12:19.773Z)
Latitude
0.00004°
Longitude
115.21882°
Altitude
488.504 km
Speed
7.625 km/s
True Right ascension
21h 36m 19s
True Declination
0° 00' 00"
Sunlit
Object was in full shadow at epoch
Visualization orbit readout
Latitude
Unknown
Longitude
Unknown
Altitude
Unknown
Speed
Unknown
Apparent Right ascension
Unknown
Apparent Declination
Unknown
Sunlit
N/A
Visualization observer readout
Local Sidereal Time
22:46:50
Azimuth
Unknown
Elevation
Unknown
Doppler factor
Unknown
Orbital elements
Apogee altitude
497.421 km
Perigee altitude
481.133 km
Semi-major axis
6,867.414 km
Eccentricity
0.00119
Inclination
97.3572°
RAAN
324.0812°
Arg. of periapsis
32.1332°
True anomaly
327.99072°
Mean anomaly
328.0627°
Eccentric anomaly
328.02672°
Mean motion
3.81376 °/min
Orbital period
94.4 mins
BSTAR
0.00024677
Loading maneuver chart data...
Computing Atmospheric mass density...
Loading historical data...
Loading historical data...
Loading historical data...
Loading historical data...
Loading historical data...
Loading historical data...
Loading historical data...

Documentation

Showing up to 5 results
|